Погода в Атбасаре

Погода в Атбасаре : погода сейчас, прогноз погоды и архив. Всё, что Вы хотите узнать о погоде в Атбасаре!

Хотите узнать прогноз погоды в Атбасаре? Тогда Вам сюда: Погода в Атбасаре

Поиск расширенной информации на нашем сайте:

Полезная информация: Смотрите информацию гта по сети у нас.

Другие новости

Новости СМИ2

Главная страница сайта

Новости сайта

03.07.2017

Напоминаем, что на нашем специализированном сайте Метеоцентр.Азия вы можете получить высокодетализированные автоматические прогнозы погоды по пунктам России, СНГ и мира в авиационном формате (включающие направление и скорость ветра, видимость, явления погоды, количество и форму облачности, нижнюю и верхнюю границу облачности).

Рекомендуем: Преимущества колесных экскаваторов case.

Погода в Атбасаре - сегодня

Время (UTC), дата Ветер
(°,м/с) 
Видим.   Явления Облачность Т
(°С)
Тd
(°С)
f(%) Тe
(°С)
Pmin
(гПа)
dP
(гПа)
Po
(мм)
O2
(г/м3)
Тmin Tmax R s Состояние
почвы
06 15.08.17 090 (В) 20000 м    1/0 верхняя 
[Ci fib]
+23.5 +12.4 50 +28  1019.6  739  272  +8.8         
09 15.08.17 090 (В) 20000 м    8/5 1000 м верхняя 
[Cu med, cong|Ci sp]
+25.3 +14.7 52 +34  1019.1  -0.2  738  269           
12 15.08.17 090 (В) 20000 м    6/3 1000 м верхняя 
[Cu med, cong|Ci sp]
+24.7 +14.7 54 +33  1018.8  -0.4  738  270           
15 15.08.17 тихо ()   20000 м    3/3 1000 м средняя 
[Sc|Ac lent]
+19.3 +10.3 56 +21  1020  0.5  739  276    +25.6       
18 15.08.17 тихо ()   н/о    ясно 
+11.7 +5.2 64 +12  1021.5  0.5  739  285    +25.6       
21 15.08.17 тихо ()   н/о    ясно 
+9.4 +4.5 71 +9  1021.7  -0.1  739  287           
00 16.08.17 тихо ()   20000 м    ясно 
+7.3 +3.6 77 +7  1022.4  0.4  739  289           
03 16.08.17 тихо ()   20000 м    1/0 верхняя 
[Ci fib]
+14 +4.6 53 +14  1022.5  0.9  740  283           
06 16.08.17 140 (ЮВ) 20000 м    1/1 1000 м 
[Cu hum]
+21.7 +10 47 +23  1021.2  -0.3  740  274  +6.9         
09 16.08.17 020 (С) 20000 м    1/1 1500 м 
[Cu hum]
+24.2 +2.2 24 +24  1019.9  -1  739  273           
12 16.08.17 090 (В) 20000 м    ясно 
+24.8 +0.8 21 +25  1019.6  -0.2  739  273           
15 16.08.17 тихо ()   20000 м    ясно 
+20.8 +4.5 34 +21  1020.4  0.3  739  276    +25.4       
18 16.08.17 тихо ()   н/о    ясно 
+15 +4 48 +15  1021.4  0.3  739  282    +25.4       
21 16.08.17 360 (С) н/о    ясно 
+8.5 +3.4 70 +9  1022.2  -0.1  739  288           
00 17.08.17 320 (СЗ) 20000 м    ясно 
+6.1 +2.7 79 +6  1022.9  0.4  739  291           
03 17.08.17 тихо ()   20000 м    4/0 средняя 
[Ac und]
+15.2 +4.6 49 +15  1022.2  0.5  740  282           
06 17.08.17 290 (З) 20000 м    3/0 средняя, верхняя 
[Ac cast|Ci sp]
+24.6 +8 35 +25  1020.6  -0.4  739  272  +6.1         
09 17.08.17 320 (СЗ) 20000 м    5/5 1500 м 
[Cu med, cong]
+26.9 +9 32 +27  1019  -1.3  738  269           
12 17.08.17 320 (СЗ) 20000 м    8/8 1000 м 
[Cu Sc]
+25.7 +11.8 42 +30  1018.8  -0.3  738  270           
15 17.08.17 360 (С) 20000 м    5/5 1000 м 
[Sc diur, vesp]
+20 +10.5 54 +22  1020.7  1.2  739  276    +28.7       
18 17.08.17 320 (СЗ) н/о    3/3 1000 м 
[Sc]
+13.7 +7.9 68 +14  1022.1  0.5  740  282    +28.7       
21 17.08.17 320 (СЗ) н/о    ясно 
+9.7 +5.6 76 +9  1022.6  740  287           
00 18.08.17 320 (СЗ) 20000 м    3/3 1000 м 
[Sc]
+7.5 +4.1 79 +7  1023.1  0.2  740  289           
03 18.08.17 320 (СЗ) 20000 м    3/1 1000 м верхняя 
[Sc|Ci fib]
+14.3 +9 70 +14  1023  0.8  740  282           
06 18.08.17 360 (С) 10 км    6/5 1000 м 
[Cu med, cong]
+21.1 +11.7 55 +25  1022.1  740  275  +7.5         
Время (UTC), дата Ветер
(°,м/с) 
Видим.   Явления Облачность Т
(°С)
Тd
(°С)
f(%) Тe
(°С)
Pmin
(гПа)
dP
(гПа)
Po
(мм)
O2
(г/м3)
Тmin Tmax R s Состояние
почвы

Для получения пояснительной информации подведите курсор к названию столбца.

ПОГОДА в Атбасаре - архив

Всё, что Вы хотите узнать о погоде в Атбасаре - удобно и подробно!

Выберите нужную дату (начиная с 1 января 2015* года) и нажмите кнопку "Найти".
Будут отображены архивные сводки погоды по пункту Атбасар, начиная с указанной даты.


Отображать данные в формате CSV (для использования в таблицах Excel)


Внимание! Наш архив погоды предназначен исключительно для личного некоммерческого использования в познавательных целях. Если Вам необходимы официальные справки о состоянии погоды (для производственных, юридических, коммерческих и т.п. целей), обращайтесь в органы Росгидромета.

*Примечание: данная дата относится к архиву по метеостанциям СССР (Россия, СНГ, Балтия).
Архив по метеостанциям Зарубежной Европы и Азии (кроме Китая) хранится 10 дней, по другим регионам земного шара (Китай, Африка, Америка, Австралия, Океания) - 1 день.

Атбасар - район местоположения метеостанции


Название, широта, долгота, высота метеостанции:
Атбасар 51.8°ш. 68.4°д. 304 м над ур. моря [Казахстан]

Дополнительная информация

В oтличие oт бoльшинства пoгoдных сайтoв мы публикуем пoдрoбную метеoинфoрмацию в детальнoм прoфессиoнальнoм фoрмате.

Характеристики температуры и влажнoсти вoздуха измеряются на высoте 2 м в тени вдали oт зданий и деревьев.
Скoрoсть ветра измеряется на высoте 10 м (на урoвне рoста челoвека скoрoсть ветра ниже в 1.5-2 раза). Если метеoстанция нахoдится в гoрoде или в лесу, тo скoрoсть ветра занижена на 2-4 м/с пo сравнению с oткрытым местoм. Скoрoсть ветра над акватoриями крупных рек и oзёр, а также на вершинах хoлмoв на 2-5 м/с выше, чем в oбычных услoвиях.
Атмoсфернoе давление в разных тoчках местнoсти мoжет значительнo oтличаться oт давления на метеoстанции, в зависимoсти oт услoвий рельефа (при пoдъёме на 10 м давление пoнижается примернo на 1 мм рт.ст.).